Погода в Ореле

Погода в Ореле : погода сейчас, прогноз погоды и архив. Всё, что Вы хотите узнать о погоде в Ореле!

Хотите узнать прогноз погоды в Ореле? Тогда Вам сюда: Погода в Ореле

Поиск расширенной информации на нашем сайте:

Полезная информация:

Другие новости

Новости СМИ2

Главная страница сайта

Новости сайта

03.07.2017

Напоминаем, что на нашем специализированном сайте Метеоцентр.Азия вы можете получить высокодетализированные автоматические прогнозы погоды по пунктам России, СНГ и мира в авиационном формате (включающие направление и скорость ветра, видимость, явления погоды, количество и форму облачности, нижнюю и верхнюю границу облачности).

Рекомендуем:

Погода в Ореле - сегодня

Время (UTC), дата Ветер
(°,м/с) 
Видим.   Явления Облачность Т
(°С)
Тd
(°С)
f(%) Тe
(°С)
Pmin
(гПа)
dP
(гПа)
Po
(мм)
O2
(г/м3)
Тmin Tmax R s Состояние
почвы
00 22.05.19 160 (Ю) 10 км    9/0 средняя, верхняя 
[Ac trans|Ci fib]
+13.9 +6.8 62 +15  1014.8  -0.8  744  284           
03 22.05.19 140 (ЮВ) 10 км    9/5 600 м средняя, верхняя 
[Sc|Ac trans|Ci fib]
+13.3 +11.1 87 +18  1013.3  -1.4  743  283  +13.2         
06 22.05.19 150 (ЮВ) 10 км    9/8 600 м верхняя 
[Sc|Ci sp]
+16.4 +11.9 75 +21  1012.2  -0.8  742  280  +13.2        сухая 
09 22.05.19 140 (ЮВ) 10 км    9/4 600 м верхняя 
[Cu Sc|Ci fib]
+21.9 +13.5 59 +28  1010.6  -1.2  741  274           
12 22.05.19 190 (Ю) 10 км  гроза без осадков  8/8 600 м кучево-дожд., верхняя 
[Cb calv|Ci fib]
+21.5 +9.2 45 +22  1009.4  -1.2  740  275           
15 22.05.19 260 (З) 10 км  гроза без осадков  9/8 600 м кучево-дожд., верхняя 
[Cb calv|Ci fib]
+19.4 +12.2 63 +25  1009.2  -0.3  740  276           
18 22.05.19 150 (ЮВ) 10 км  {гроза}  9/3 600 м кучево-дожд., верхняя 
[Cb calv|Ci fib]
+17 +12.8 76 +23  1008.7  -0.6  740  278    +24.2       
21 22.05.19 тихо ()   10 км    9/3 600 м кучево-дожд., средняя, верхняя 
[Cb calv|Ac trans|Ci fib]
+15.4 +13 86 +21  1008.4  -0.4  739  279           
00 23.05.19 тихо ()   10 км    8/0 средняя 
[Ac trans]
+14.2 +12.8 91 +20  1007.6  -0.9  739  280           
03 23.05.19 тихо ()   10 км    9/8 1000 м средняя 
[Sc|Ac trans]
+14.1 +12.9 92 +20  1007  -0.5  738  280  +13.6         
06 23.05.19 300 (СЗ) 10 км    8/3 1000 м средняя 
[Sc|Ac trans]
+19.7 +12.9 65 +27  1006.6  738  275  +13.6        сухая 
09 23.05.19 290 (З) 10 км    4/3 1000 м верхняя 
[Sc|Ci fib]
+23.9 +11.4 45 +27  1005.8  -0.5  738  271           
12 23.05.19 300 (СЗ) 10 км    8/4 600 м кучево-дожд., верхняя 
[Cb calv|Ci fib]
+25.4 +10.4 39 +27  1004.4  -1.2  737  270           
15 23.05.19 090 (В) 10 км  гроза, ливневой дождь  9/8 600 м кучево-дожд., средняя, верхняя 
[Cb calv|Ac trans|Ci fib]
+21.9 +13.3 58 +28  1004.2  -0.5  737  272      0.0     
18 23.05.19 340 (С) 10 км  {гроза, ливн. осадки}  9/8 600 м кучево-дожд., верхняя 
[Cb calv|Ci sp]
+17.6 +15.1 85 +28  1005.6  1.1  737  276    +25.6     
21 23.05.19 тихо ()   10 км    3/0 верхняя 
[Ci fib]
+14.7 +13.8 94 +22  1006.6  0.7  738  279           
00 24.05.19 тихо ()   4000 м  дымка  ясно 
+12.4 +11.6 95 +16  1007.1  0.3  738  282           
03 24.05.19 360 (С) 10 км    1/0 верхняя 
[Ci fib]
+13.3 +12.4 94 +20  1008.1  1.1  739  281  +12       
06 24.05.19 060 (СВ) 10 км    8/3 600 м верхняя 
[Sc|Ci fib]
+18.9 +13.7 72 +27  1008.9  1.3  740  276  +12        влажная 
09 24.05.19 110 (В) 10 км    8/5 600 м верхняя 
[Cu hum|Ci fib]
+19.8 +13.2 66 +27  1010.5  1.5  741  276           
12 24.05.19 080 (В) 10 км    8/6 600 м кучево-дожд., верхняя 
[Cb calv|Ci fib]
+20.4 +12.8 62 +26  1010.1  -0.3  741  275           
15 24.05.19 120 (ЮВ) 10 км    8/3 600 м верхняя 
[Cu hum|Ci fib]
+19.9 +11.4 58 +24  1010.2  -0.1  741  276           
18 24.05.19 120 (ЮВ) 10 км    10/3 600 м кучево-дожд., средняя 
[Cb calv|As op]
+16.7 +11.2 70 +21  1010.8  0.2  741  279    +21       
21 24.05.19 110 (В) 10 км    5/0 средняя, верхняя 
[Ac trans|Ci fib]
+15 +9.9 72 +16  1010.9  741  281           
00 25.05.19 140 (ЮВ) 10 км    10/0 средняя 
[As op]
+13.4 +8.8 74 +13  1010.3  -0.8  740  283           
Время (UTC), дата Ветер
(°,м/с) 
Видим.   Явления Облачность Т
(°С)
Тd
(°С)
f(%) Тe
(°С)
Pmin
(гПа)
dP
(гПа)
Po
(мм)
O2
(г/м3)
Тmin Tmax R s Состояние
почвы

Для получения пояснительной информации подведите курсор к названию столбца.

ПОГОДА в Ореле - архив

Всё, что Вы хотите узнать о погоде в Ореле - удобно и подробно!

Выберите нужную дату (начиная с 1 января 2018* года) и нажмите кнопку "Найти".
Будут отображены архивные сводки погоды по пункту Орел, начиная с указанной даты.


Отображать данные в формате CSV (для использования в таблицах Excel)


Внимание! Наш архив погоды предназначен исключительно для личного некоммерческого использования в познавательных целях. Если Вам необходимы официальные справки о состоянии погоды (для производственных, юридических, коммерческих и т.п. целей), обращайтесь в органы Росгидромета.

*Примечание: данная дата относится к архиву по метеостанциям СССР (Россия, СНГ, Балтия).
Архив по метеостанциям Зарубежной Европы и Азии (кроме Китая) хранится 10 дней, по другим регионам земного шара (Китай, Африка, Америка, Австралия, Океания) - 1 день.

Орел - район местоположения метеостанции


Название, широта, долгота, высота метеостанции:
Орел 52.9°ш. 36°д. 196 м над ур. моря [Российская Федерация]

Дополнительная информация

В oтличие oт бoльшинства пoгoдных сайтoв мы публикуем пoдрoбную метеoинфoрмацию в детальнoм прoфессиoнальнoм фoрмате.

Характеристики температуры и влажнoсти вoздуха измеряются на высoте 2 м в тени вдали oт зданий и деревьев.
Скoрoсть ветра измеряется на высoте 10 м (на урoвне рoста челoвека скoрoсть ветра ниже в 1.5-2 раза). Если метеoстанция нахoдится в гoрoде или в лесу, тo скoрoсть ветра занижена на 2-4 м/с пo сравнению с oткрытым местoм. Скoрoсть ветра над акватoриями крупных рек и oзёр, а также на вершинах хoлмoв на 2-5 м/с выше, чем в oбычных услoвиях.
Атмoсфернoе давление в разных тoчках местнoсти мoжет значительнo oтличаться oт давления на метеoстанции, в зависимoсти oт услoвий рельефа (при пoдъёме на 10 м давление пoнижается примернo на 1 мм рт.ст.).